This demonstration page uses our WeatherBlox Daily Observations layout. Learn more.

Left ArrowRight Arrow

Hourly Observations for February 11, 2017

Temp ( °F °C ) Dew Point ( °F °C ) Humidity (%) Winds ( mph kmh ) Pressure ( in mb ) Visibility ( mi km ) Precip ( " mm )
12:51 am 00:51 Clear 54 12.2 38 3.3 55 55 NE 8 13 29.95 1014 10 16 N/A
1:51 am 01:51 Clear 50 10 36 2.2 59 59 WNW 3 6 29.95 1014 10 16 N/A
2:51 am 02:51 Clear 47 8.3 37 2.8 69 69 NW 5 7 29.96 1015 10 16 N/A
3:51 am 03:51 Clear 48 8.9 36 2.2 63 63 ENE 5 7 29.95 1014 10 16 N/A
4:51 am 04:51 Clear 47 8.3 36 2.2 66 66 N N/A 29.95 1014 10 16 N/A
5:51 am 05:51 Clear 43 6.1 35 1.7 74 74 NW 5 7 29.97 1015 10 16 N/A
6:51 am 06:51 Clear 44 6.7 36 2.2 73 73 WNW 6 9 30.01 1016 10 16 N/A
7:51 am 07:51 Sunny 48 8.9 35 1.7 61 61 N N/A 30.03 1017 10 16 N/A
8:51 am 08:51 Sunny 56 13.3 35 1.7 46 46 N N/A 30.03 1017 10 16 N/A
9:51 am 09:51 Sunny 64 17.8 38 3.3 38 38 SE 10 17 30.01 1016 10 16 N/A
10:51 am 10:51 Sunny 69 20.6 35 1.7 29 29 E 8 13 30.00 1016 10 16 N/A
11:51 am 11:51 Sunny 75 23.9 35 1.7 23 23 E 9 15 29.96 1015 10 16 N/A
12:51 pm 12:51 Sunny 78 25.6 33 0.6 19 19 ESE 8 13 29.91 1013 10 16 N/A
1:51 pm 13:51 Sunny 81 27.2 32 undefined 17 17 VRB 3 6 29.86 1011 10 16 N/A
2:51 pm 14:51 Sunny 81 27.2 29 -1.7 15 15 SSE 6 9 29.85 1011 10 16 N/A
3:51 pm 15:51 Sunny 80 26.7 30 -1.1 16 16 NNW 14 22 29.84 1011 10 16 N/A
4:51 pm 16:51 Sunny 77 25 32 undefined 19 19 NW 10 17 29.86 1011 10 16 N/A
5:51 pm 17:51 Sunny 74 23.3 36 2.2 25 25 NNW 13 20 29.88 1012 10 16 N/A
6:51 pm 18:51 Clear 69 20.6 39 3.9 33 33 NW 17 28 29.91 1013 10 16 N/A
7:51 pm 19:51 Clear 70 21.1 38 3.3 31 31 NW 16 26 29.92 1013 10 16 N/A
8:51 pm 20:51 Clear 66 18.9 38 3.3 36 36 NW 9 15 29.93 1013 10 16 N/A
9:51 pm 21:51 Clear 63 17.2 38 3.3 40 40 WNW 7 11 29.93 1013 10 16 N/A
10:51 pm 22:51 Clear 59 15 38 3.3 46 46 NW 6 9 29.93 1014 10 16 N/A
11:51 pm 23:51 Clear 58 14.4 39 3.9 50 50 NNW 7 11 29.93 1014 10 16 N/A

Powered by AerisWeather